Location: Eastchurch
(51.4000°N, 0.8667°E)
Time: 20:19:43
(UTC+00:00)

Landsat 7 - Pass Details

Date: 19 January 2026
Orbit: 680 x 682 km, 97.9° (Epoch: 16 February)

Event Time Altitude Azimuth Distance (km) Brightness Sun altitude
Rises 16:52:54 0° 153° (SSE) 3,034 7.1 -4.8°
Reaches altitude 10° 16:55:09 10° 149° (SSE) 2,123 6.3 -5.1°
Maximum altitude 16:59:43 60° 71° (ENE) 788 3.8 -5.7°
Drops below altitude 10° 17:04:18 10° 352° (N) 2,137 6.2 -6.4°
Sets 17:06:35 0° 349° (N) 3,057 7.0 -6.7°
